Dewpoint
41 36 33 33 28 28 26 20 18 21 20 19 17 17 18 20 44 49 52 55 57 58 59 60 61 63 64 65 68 69 70 70 70 71 70 70 70 70 69 70 71 72 71 71
36 35 36 35 33 28 22 18 17 18 19 16 16 16 17 21 39 48 49 53 55 56 58 59 62 63 63 64 66 68 69 70 70 70 71 70 69 69 70 70 69 69 70 71
35 32 37 36 32 27 24 21 21 19 20 17 17 17 17 19 31 46 50 52 54 55 56 59 61 62 63 64 66 68 69 70 70 71 70 69 69 69 69 69 69 69 71 71
23 31 35 35 33 31 30 27 24 23 19 17 19 13 18 17 16 21 41 48 51 53 55 58 60 62 62 63 65 68 69 70 71 71 71 69 68 68 69 69 70 70 71 72
16 26 32 33 32 28 28 26 24 23 18 15 17 11 15 21 15 14 19 26 42 50 53 55 58 61 62 63 65 67 70 70 71 72 71 70 69 68 68 68 68 69 71 72
16 19 24 27 28 27 27 20 17 16 12 12 15 13 14 14 13 14 25 28 32 34 51 55 58 61 62 63 66 68 70 71 72 72 71 70 68 68 68 68 70 69 70 71
15 14 16 22 21 21 17 15 14 14 13 14 16 12 16 17 18 18 19 19 24 42 44 54 57 60 63 64 67 69 70 71 72 71 71 70 69 69 69 68 68 68 68 69
12 8 15 18 17 16 16 16 15 12 12 14 17 13 17 21 19 22 24 24 23 45 53 56 57 62 63 65 67 69 70 71 71 71 70 70 70 69 69 68 69 68 68 69
13 12 16 16 16 15 18 16 16 13 14 11 14 15 19 22 22 34 46 39 39 52 54 58 60 63 64 66 68 70 71 71 71 71 71 69 68 67 67 66 68 70 70 69
23 17 22 23 19 21 14 16 14 14 15 12 16 17 17 22 23 47 61 56 58 59 61 64 66 67 68 69 70 71 71 71 71 71 70 68 66 66 65 66 68 70 70 69
36 23 22 25 20 16 16 14 14 13 15 14 14 18 23 25 43 53 63 64 65 66 68 69 70 70 70 69 70 69 70 70 70 69 69 67 66 65 65 65 69 70 69 69
32 24 24 24 27 25 17 15 15 19 17 17 17 16 40 51 50 63 65 66 66 66 66 67 67 68 68 68 67 67 68 68 68 68 69 66 66 67 67 69 70 69 69 68
29 27 25 23 26 35 25 23 19 17 19 18 17 19 44 56 59 61 62 66 67 67 66 67 67 67 67 67 66 66 66 67 68 69 68 68 69 70 70 70 69 68 68 67
42 31 24 22 26 31 32 32 32 20 19 19 18 20 27 50 56 58 57 62 64 67 67 67 67 67 67 67 67 66 67 68 68 69 68 68 70 70 69 70 69 68 68 67
29 23 32 32 36 34 34 41 45 23 19 18 21 23 42 52 55 58 60 62 63 65 67 68 67 67 67 67 67 67 67 68 68 68 68 68 70 70 69 68 68 68 68 67
33 28 34 29 31 31 28 37 47 47 47 46 44 48 56 56 57 57 58 59 60 62 64 65 65 66 67 66 66 66 67 68 69 68 67 69 69 69 68 68 68 68 68 68
32 29 28 24 29 29 39 45 46 49 51 49 41 50 55 53 53 54 56 58 60 61 62 63 63 63 63 65 67 67 67 68 69 69 68 69 69 68 68 68 68 68 68 68
36 34 34 26 31 26 45 50 48 48 50 53 54 55 55 53 54 55 57 56 58 59 61 62 62 62 63 64 67 68 68 67 68 68 68 69 69 68 68 68 68 68 68 67
36 37 33 28 32 36 45 49 50 48 45 52 54 54 54 55 54 53 58 59 57 59 61 62 62 63 63 62 63 68 67 67 67 67 68 68 68 68 67 67 68 68 67 66
41 36 29 34 34 33 44 50 52 52 41 53 53 53 53 53 48 52 56 59 59 58 59 60 63 63 63 62 62 64 64 64 63 64 64 64 64 65 65 65 64 65 64 63
39 39 34 35 33 41 48 50 52 37 37 52 53 53 52 53 53 54 59 62 60 60 62 62 63 62 62 63 63 62 62 60 61 61 61 61 62 62 63 63 63 63 62 63
39 37 35 36 37 36 47 51 43 47 51 53 53 52 55 55 55 58 60 60 62 62 62 62 60 59 59 60 61 58 58 61 63 62 62 62 63 62 62 61 61 61 60 62
39 41 40 39 38 47 47 51 52 52 52 53 55 55 55 53 57 59 58 59 60 60 60 60 57 55 56 56 56 55 55 58 59 58 59 60 60 61 63 62 62 61 61 61
46 47 43 42 44 48 52 53 54 52 53 56 59 56 57 57 58 57 57 58 58 59 58 58 57 56 56 57 56 55 56 56 56 56 57 58 58 59 61 61 62 62 62 62
44 47 44 43 45 49 50 52 54 53 53 55 57 58 59 59 58 57 56 56 57 57 57 57 56 56 56 56 57 57 56 55 55 55 55 56 57 57 58 60 60 59 59 56
47 43 41 40 44 48 49 52 54 53 52 53 53 53 57 59 58 57 56 56 56 56 55 55 55 54 54 55 55 56 57 57 55 55 54 54 55 57 57 58 59 49 48 45
Lifted_Index
7 6 5 4 3 2 2 3 3 3 3 3 2 1 1 1 1 -0 -1 -2 -3 -3 -3 -3 -3 -3 -3 -3 -4 -4 -5 -4 -4 -4 -4 -4 -4 -4 -4 -4 -4 -4 -3 -3
7 6 4 3 2 2 2 2 3 3 3 3 2 1 1 1 1 0 -1 -2 -3 -3 -3 -3 -3 -3 -3 -3 -3 -4 -4 -4 -4 -4 -4 -4 -4 -4 -4 -4 -4 -3 -3 -3
6 5 3 1 1 1 1 2 2 3 3 3 2 1 1 1 1 1 0 -1 -2 -2 -3 -3 -3 -3 -3 -3 -4 -4 -4 -4 -4 -4 -4 -4 -4 -4 -4 -4 -4 -4 -3 -3
5 4 3 1 0 0 1 1 1 2 2 2 2 1 1 1 1 1 1 0 -1 -1 -2 -2 -3 -3 -3 -3 -4 -4 -5 -4 -4 -4 -5 -5 -5 -5 -5 -5 -5 -4 -4 -4
4 3 2 1 1 1 1 1 1 2 2 2 2 2 1 1 1 1 1 2 1 -0 -1 -2 -2 -3 -3 -3 -4 -4 -5 -5 -4 -4 -5 -5 -5 -5 -5 -5 -5 -4 -4 -4
3 2 2 1 1 2 1 1 1 1 1 1 1 2 1 1 1 1 2 2 2 1 -0 -1 -2 -3 -3 -4 -4 -5 -5 -5 -5 -5 -5 -5 -6 -5 -5 -4 -4 -4 -4 -4
2 1 1 1 1 1 1 1 0 0 0 0 1 1 1 1 1 2 2 2 2 1 0 -1 -2 -3 -3 -4 -5 -5 -5 -5 -5 -5 -6 -6 -6 -5 -4 -3 -2 -3 -4 -4
1 1 1 1 1 1 1 0 -0 -0 -0 0 1 1 1 1 2 2 2 2 2 1 0 -1 -2 -3 -4 -4 -5 -5 -6 -6 -6 -6 -6 -6 -6 -5 -3 -2 -1 -2 -4 -4
1 1 1 1 0 1 0 0 -0 -0 -0 0 1 1 1 2 1 1 1 1 1 1 -0 -2 -3 -4 -4 -5 -5 -6 -6 -6 -6 -6 -7 -6 -6 -5 -3 -1 -1 -3 -4 -4
1 1 1 1 1 0 -0 -0 -0 -0 -0 0 0 1 1 1 1 -1 -2 -2 -1 -2 -2 -3 -4 -5 -5 -6 -6 -6 -6 -6 -7 -7 -7 -6 -5 -3 -2 -1 -2 -3 -4 -4
1 1 1 1 1 0 -0 -0 -0 -0 0 0 0 1 1 1 -1 -3 -5 -5 -4 -4 -5 -5 -6 -6 -6 -6 -6 -6 -6 -7 -7 -7 -7 -6 -4 -2 -2 -2 -3 -4 -5 -4
1 1 1 1 1 1 0 0 -0 -0 0 1 1 1 1 -1 -3 -5 -7 -7 -6 -6 -6 -6 -6 -7 -6 -6 -6 -6 -7 -7 -7 -7 -6 -5 -3 -3 -3 -4 -5 -5 -5 -4
1 1 1 1 1 1 0 0 0 0 0 1 1 1 1 -2 -5 -7 -8 -7 -7 -7 -6 -6 -7 -7 -7 -7 -7 -7 -7 -7 -7 -7 -6 -5 -4 -5 -5 -6 -6 -5 -4 -4
1 1 1 1 1 0 -0 -1 -1 -0 0 0 1 1 0 -2 -5 -7 -8 -8 -8 -7 -7 -7 -7 -7 -8 -8 -8 -7 -7 -6 -6 -7 -6 -6 -6 -6 -6 -6 -6 -5 -4 -3
1 1 1 1 1 0 -0 -1 -2 -1 -0 -0 -0 0 -0 -2 -4 -6 -7 -7 -7 -7 -8 -8 -7 -8 -8 -8 -7 -7 -6 -6 -6 -6 -6 -6 -6 -7 -7 -6 -6 -5 -4 -3
0 0 1 1 1 0 -0 -1 -2 -2 -1 -1 -1 -2 -2 -3 -4 -5 -6 -6 -6 -7 -7 -7 -7 -6 -7 -7 -7 -6 -6 -6 -6 -6 -6 -6 -6 -7 -7 -6 -6 -5 -4 -4
1 1 1 1 1 0 -0 -1 -2 -2 -2 -2 -2 -3 -3 -3 -4 -5 -5 -5 -5 -5 -6 -6 -5 -4 -4 -4 -5 -6 -6 -6 -6 -6 -6 -6 -7 -7 -7 -6 -6 -5 -4 -4
1 1 1 1 1 0 -1 -1 -1 -2 -3 -3 -3 -3 -3 -3 -3 -3 -3 -4 -4 -4 -4 -4 -3 -2 -1 -1 -3 -5 -6 -6 -7 -7 -7 -7 -7 -7 -7 -6 -6 -5 -5 -5
0 1 1 1 1 0 -1 -2 -2 -2 -2 -3 -3 -3 -3 -3 -2 -2 -2 -2 -2 -2 -1 -1 -2 -1 -1 0 -0 -3 -5 -6 -7 -7 -7 -7 -7 -7 -7 -6 -6 -5 -5 -5
0 0 1 0 0 -0 -2 -3 -3 -2 -1 -2 -3 -3 -3 -2 -2 -2 -2 -1 -1 -0 0 -0 -1 -1 -0 1 0 -2 -4 -6 -7 -8 -8 -7 -7 -7 -7 -6 -6 -5 -5 -5
-0 -0 -0 -0 -1 -1 -2 -3 -3 -2 -1 -2 -2 -2 -2 -2 -1 -2 -2 -2 -1 -1 -0 -0 -0 -0 0 0 -0 -2 -3 -5 -7 -7 -7 -7 -6 -6 -5 -5 -5 -4 -3 -3
-1 -1 -1 -1 -1 -1 -2 -2 -2 -1 -1 -1 -1 -1 -1 -1 -1 -2 -2 -2 -2 -2 -1 -1 -0 0 0 0 -1 -1 -2 -3 -4 -5 -5 -4 -4 -4 -3 -3 -3 -2 -2 -1
-1 -1 -1 -0 -1 -1 -1 -1 -1 -1 -1 -1 -1 -0 -0 -1 -1 -1 -1 -1 -1 -1 -1 0 1 1 1 1 1 -0 -1 -1 -1 -1 -1 -1 -0 -0 -0 -1 -1 -1 -0 -0
-0 -0 -0 0 0 -0 -1 -1 -1 -0 -0 -1 -1 -1 -1 -1 -1 -0 -0 0 -0 -0 0 1 2 2 2 2 2 1 1 1 2 2 2 2 2 2 2 2 1 1 1 1
0 0 0 0 0 -0 -0 -0 0 1 1 1 -0 -0 -0 -0 -0 -0 0 0 1 1 1 2 2 2 2 2 2 2 2 2 2 3 3 3 4 4 4 3 3 2 2 2
0 0 0 0 -0 -0 0 0 0 1 2 2 1 0 0 -0 -0 -0 -0 0 1 1 1 2 2 2 2 2 3 3 3 3 3 3 4 4 4 4 4 4 3 2 2 2